| time (UTC) | temp C | wind direction | speed KPH | gust KPH | rain 1hr cm | rain 24hr cm | rain mn cm | humidity % | barometer mb |
| 20260831183016 | 19 | 0.0 | 0.0 | 0.15 | 0.20 | 0.15 | 91 | 1021.0 | |
| 20260831180016 | 19 | 0.0 | 0.0 | 0.10 | 0.15 | 0.10 | 89 | 1021.3 | |
| 20260831173016 | 19 | 0.0 | 0.0 | 0.00 | 0.05 | 0.00 | 87 | 1021.7 | |
| 20260831170018 | 19 | 113 | 1.6 | 6.4 | 0.00 | 0.05 | 0.00 | 88 | 1021.9 |
| 20260831163016 | 18 | 0.0 | 0.0 | 0.00 | 0.05 | 0.00 | 87 | 1022.0 | |
| 20260831160016 | 19 | 0.0 | 0.0 | 0.00 | 0.05 | 0.00 | 87 | 1022.3 | |
| 20260831153016 | 18 | 0.0 | 11.3 | 0.00 | 0.05 | 0.00 | 87 | 1022.1 | |
| 20260831150016 | 18 | 0.0 | 4.8 | 0.00 | 0.05 | 0.00 | 87 | 1021.8 | |
| 20260831143016 | 18 | 0.0 | 0.0 | 0.00 | 0.05 | 0.00 | 89 | 1022.0 | |
| 20260831140018 | 18 | 0.0 | 8.0 | 0.00 | 0.05 | 0.00 | 91 | 1022.3 | |
| 20260831133016 | 17 | 0.0 | 0.0 | 0.00 | 0.05 | 0.00 | 95 | 1022.2 | |
| 20260831130036 | 17 | 0.0 | 0.0 | 0.00 | 0.05 | 0.00 | 96 | 1022.0 | |
| 20260831123037 | 16 | 0.0 | 0.0 | 0.00 | 0.05 | 0.00 | 97 | 1022.1 | |
| 20260831120016 | 16 | 0.0 | 0.0 | 0.00 | 0.05 | 0.00 | 97 | 1022.1 | |
| 20260831113016 | 15 | 0.0 | 0.0 | 0.00 | 0.05 | 0.00 | 96 | 1021.9 | |
| 20260831110016 | 15 | 0.0 | 0.0 | 0.00 | 0.05 | 0.00 | 96 | 1021.6 | |
| 20260831103016 | 15 | 0.0 | 0.0 | 0.00 | 0.05 | 0.00 | 96 | 1021.5 | |
| 20260831100016 | 15 | 0.0 | 0.0 | 0.00 | 0.05 | 0.00 | 96 | 1021.2 | |
| 20260831093016 | 15 | 0.0 | 0.0 | 0.00 | 0.05 | 0.00 | 95 | 1021.4 | |
| 20260831090036 | 15 | 0.0 | 0.0 | 0.00 | 0.05 | 0.00 | 95 | 1021.3 | |
| 20260831083016 | 15 | 0.0 | 0.0 | 0.00 | 0.05 | 0.00 | 96 | 1021.2 | |
| 20260831080037 | 15 | 0.0 | 0.0 | 0.00 | 0.05 | 0.00 | 95 | 1021.5 | |
| 20260831073016 | 15 | 0.0 | 0.0 | 0.00 | 0.05 | 0.00 | 95 | 1021.4 | |
| 20260831070016 | 15 | 0.0 | 0.0 | 0.00 | 0.05 | 0.00 | 94 | 1021.3 | |
| 20260831063016 | 16 | 0.0 | 0.0 | 0.00 | 0.05 | 0.00 | 94 | 1021.5 | |
| 20260831060015 | 16 | 0.0 | 0.0 | 0.00 | 0.05 | 0.00 | 93 | 1021.9 | |
| 20260831053018 | 16 | 0.0 | 0.0 | 0.00 | 0.05 | 0.00 | 93 | 1022.1 | |
| 20260831050037 | 16 | 0.0 | 0.0 | 0.00 | 0.05 | 0.00 | 93 | 1021.9 | |
| 20260831043018 | 17 | 0.0 | 0.0 | 0.00 | 0.05 | 0.00 | 93 | 1022.1 | |
| 20260831040038 | 17 | 0.0 | 0.0 | 0.00 | 0.05 | 0.05 | 93 | 1021.9 | |
| 20260831033017 | 17 | 0.0 | 0.0 | 0.00 | 0.05 | 0.05 | 93 | 1021.9 | |
| 20260831030017 | 17 | 0.0 | 0.0 | 0.00 | 0.05 | 0.05 | 92 | 1021.8 | |
| 20260831023017 | 17 | 0.0 | 0.0 | 0.00 | 0.05 | 0.05 | 92 | 1021.7 | |
| 20260831020019 | 17 | 0.0 | 0.0 | 0.00 | 0.05 | 0.05 | 91 | 1021.7 | |
| 20260831013017 | 17 | 0.0 | 0.0 | 0.00 | 0.05 | 0.05 | 91 | 1021.7 | |
| 20260831010017 | 17 | 0.0 | 0.0 | 0.00 | 0.05 | 0.05 | 92 | 1021.5 | |
| 20260831003017 | 17 | 0.0 | 0.0 | 0.00 | 0.05 | 0.05 | 92 | 1020.8 | |
| 20260831000017 | 17 | 0.0 | 0.0 | 0.00 | 0.05 | 0.05 | 91 | 1020.1 | |
| 20260830233017 | 18 | 0.0 | 0.0 | 0.00 | 0.05 | 0.05 | 90 | 1020.1 | |
| 20260830230017 | 18 | 0.0 | 0.0 | 0.03 | 0.05 | 0.05 | 89 | 1020.1 | |
| 20260830223017 | 18 | 0.0 | 0.0 | 0.05 | 0.05 | 0.05 | 87 | 1020.2 | |
| 20260830220017 | 19 | 0.0 | 0.0 | 0.03 | 0.03 | 0.03 | 85 | 1020.6 | |
| 20260830213017 | 20 | 0.0 | 4.8 | 0.00 | 0.00 | 0.00 | 81 | 1020.3 | |
| 20260830210017 | 20 | 0.0 | 9.7 | 0.00 | 0.00 | 0.00 | 78 | 1020.3 | |
| 20260830203017 | 20 | 0.0 | 9.7 | 0.00 | 0.00 | 0.00 | 78 | 1020.2 | |
| 20260830200017 | 21 | 0.0 | 0.0 | 0.00 | 0.00 | 0.00 | 79 | 1020.1 | |
| 20260830193017 | 22 | 0.0 | 6.4 | 0.00 | 0.00 | 0.00 | 75 | 1020.1 | |
| 20260830190017 | 22 | 0.0 | 4.8 | 0.00 | 0.00 | 0.00 | 75 | 1020.4 |